AirNav   Air Wisconsin pilot careers
 
 1088 users online  

4MN3 Lexington Heliport
Ham Lake, Minnesota, USA

GOING TO HAM LAKE?


FAA INFORMATION EFFECTIVE 12 OCTOBER 2017

Location

FAA Identifier: 4MN3
Lat/Long: 45-18-39.9770N / 093-09-01.3090W
45-18.666283N / 093-09.021817W
45.3111047 / -93.1503636
(estimated)
Elevation: 1080 ft. / 329 m (estimated)
Variation: 02E (1995)
Time zone: UTC -5 (UTC -6 during Standard Time)
Zip code: 55092

Heliport Operations

Heliport use: Private use. Permission required prior to landing
Activation date: 05/2000
Control tower: no
ARTCC: MINNEAPOLIS CENTER
FSS: PRINCETON FLIGHT SERVICE STATION
Attendance: CONTINUOUS
Segmented circle: no

Heliport Communications

WX AWOS-3 at ANE (10 nm S): PHONE 763-780-9025
WX AWOS-3 at CBG (16 nm N): 121.125 (763-689-9562)
WX ASOS at MIC (17 nm SW): PHONE 763-531-2343
WX AWOS-3 at OEO (19 nm E): 119.925 (715-294-3845)

Nearby radio navigation aids

VOR radial/distance  VOR name  Freq  Var
GEPr037/13.7GOPHER VORTAC117.3006E
MSPr006/25.1MINNEAPOLIS VOR/DME115.3002E
FCMr022/31.7FLYING CLOUD VOR/DME117.7001E

 
NDB name  Hdg/Dist  Freq  Var  ID
CAMBRIDGE161/15.535001ECBG -.-. -... --.
PRINCETON125/24.536803EPNM .--. -. --
RUSH CITY197/24.528202EROS .-. --- ...
HOPEY338/27.740003EPPI .--. .--. ..
MORA172/35.132700WJMR .--- -- .-.

Heliport Services

Runway Information

Helipad H1

Dimensions: 200 x 85 ft. / 61 x 26 m
Surface: turf
Traffic pattern: leftleft

Heliport Ownership and Management from official FAA records

Ownership: Privately-owned
Owner: STEVEN M. THUL
4656 169TH LANE NE
HAM LAKE, MN 55304
Phone 612-434-6415
Manager: STEVEN M. THUL
4656 169TH LANE NE
HAM LAKE, MN 55304
Phone 612-434-6415

Heliport Operational Statistics

Aircraft based on the field: 1
Helicopters: 1
    

Instrument Procedures

There are no published instrument procedures at 4MN3.

Some nearby airports with instrument procedures:

KANE - Anoka County-Blaine Airport (Janes Field) (10 nm S)
KCBG - Cambridge Municipal Airport (16 nm N)
KMIC - Crystal Airport (17 nm SW)
KOEO - L O Simenstad Municipal Airport (19 nm E)
21D - Lake Elmo Airport (23 nm SE)
 
Loc | Ops | Rwys | IFR | FBO | Links
Com | Nav | Svcs | Stats | Notes


 
Area around 4MN3 (Lexington Heliport)
 
Road maps at: MapQuest Bing Google
 
Aerial photo
No photo
 
Sectional chart

 
Airport distance calculator
Flying to Lexington Heliport? Find the distance to fly.

From to 4MN3

Sunrise and sunset
Times for 23-Oct-2017
 Local
(UTC-5)
 Zulu
(UTC)
Morning civil twilight07:1012:10
Sunrise07:4012:40
Sunset18:1423:14
Evening civil twilight18:4423:44

Current date and time
Zulu (UTC)  23-Oct-2017 23:48:14
Local (UTC-5)  23-Oct-2017 18:48:14
 
METAR
KANE 
11nm S 
232245Z 31016G24KT 10SM OVC030 10/02 A2983
KCBG 
16nm N 
232335Z AUTO 32012G19KT 10SM OVC037 10/02 A2985 RMK AO2
KMIC 
17nm SW 
232253Z 33020G27KT 10SM OVC034 09/00 A2984 RMK AO2 PK WND 31032/2243 SLP107 T00890000
KOEO 
20nm E 
232335Z AUTO 30010G17KT 10SM OVC025 10/05 A2984 RMK AO2 T00960046
TAF
KMSP 
26nm S 
232101Z 2321/2424 30017G27KT P6SM BKN035 OVC040 FM232200 30017G23KT P6SM BKN025 OVC040 FM240000 32018G25KT P6SM SCT050 FM240600 32023G30KT P6SM BKN035 FM241400 32022G34KT P6SM FEW250
KRNH 
28nm E 
231734Z 2318/2418 30012G20KT P6SM BKN040 FM240600 33020G33KT P6SM VCSH BKN025
NOTAMs
Click for the latest NOTAMs
NOTAMs are issued by the DoD/FAA and will open in a separate window not controlled by AirNav.

 

 
 

Would you like to see your business listed on this page?

 If your business provides an interesting product or service to pilots, flight crews, aircraft, or users of the Lexington Heliport, you should consider listing it here.  To start the listing process, click on the button below
 
Add a business
 

Other Pages about Lexington Heliport

Update a link
 
Copyright © AirNav, LLC. All rights reserved. Privacy Policy  Contact